• Processing (Info)

  • MPEC 2003-Y09 : COMET P/2003 U3 (NEAT)

    The following Minor Planet Electronic Circular may be linked-to from your own Web pages, but must not otherwise be redistributed electronically.

    A form allowing access to any MPEC is at the bottom of this page.


    Read MPEC 2003-Y08 Read MPEC 2003-Y10


    M.P.E.C. 2003-Y09                                Issued 2003 Dec. 16, 17:52 UT
    
         The Minor Planet Electronic Circulars contain information on unusual
             minor planets and routine data on comets.  They are published
       on behalf of Commission 20 of the International Astronomical Union by the
              Minor Planet Center, Smithsonian Astrophysical Observatory,
                              Cambridge, MA 02138, U.S.A.
    
             Supported in part by the Steven and Michele Kirsch Foundation
                 Prepared using the Tamkin Foundation Computer Network
    
                                  MPC@CFA.HARVARD.EDU
              URL http://cfa-www.harvard.edu/iau/mpc.html  ISSN 1523-6714
    
                                COMET P/2003 U3 (NEAT)
    
    Observations:
        PK03U030  C2003 12 11.87358 01 51 27.44 +20 00 31.9          19.3 N EY009620
        PK03U030  C2003 12 12.83829 01 51 27.43 +19 59 13.8          17.7 N EY009213
        PK03U030  C2003 12 12.85193 01 51 27.47 +19 59 14.0          17.8 N EY009213
        PK03U030  C2003 12 12.85557 01 51 27.48 +19 59 13.3          19.5 N EY009620
        PK03U030  C2003 12 12.87780 01 51 27.48 +19 59 11.7          19.7 N EY009620
        PK03U030  C2003 12 14.49890 01 51 30.44 +19 57 13.5          18.9 T EY009360
        PK03U030  C2003 12 14.50295 01 51 30.44 +19 57 13.5                 EY009360
    
    Observer details:
    213 Observatorio Montcabre.  Observer R. Naves.  Measurer M. Campas.  0.30-m
        f/5.5 Schmidt-Cassegrain + CCD.
    360 Kuma Kogen.  Observer A. Nakamura.  0.60-m f/5.8 Ritchey-Chretien + CCD.
    620 Observatorio Astronomico de Mallorca.  Observers S. Sanchez, R. Stoss,
        J. Nomen.  0.30-m f/9 Schmidt-Cassegrain + CCD.
    
    Orbital elements:
        P/2003 U3 (NEAT)
    T 2003 Apr. 23.0301 TT                                  MPC
    q   2.495752             (2000.0)            P               Q
    n   0.0860401      Peri.  356.2413      +0.9642435      +0.2638612
    a   5.081619       Node   348.3691      -0.2398381      +0.8291161
    e   0.508867       Incl.    7.0469      -0.1127481      +0.4928933
    P  11.5
    From 115 observations 2003 Oct. 17-Dec. 14.
    
    Brian G. Marsden             (C) Copyright 2003 MPC           M.P.E.C. 2003-Y09
    

    Read MPEC 2003-Y08 Read MPEC 2003-Y10


    MPEC number:

    Enter an MPEC number in one of the following forms:

    • 1997-B01 (the full form)
    • J97B01 (the packed version of the full form)
    • B01 (the abbreviated form)